Location: Sternwarte_Laufen
(47.9344°N, 12.9346°E)
Time: 00:20:09
(UTC+01:00)

ISS - Pass Details

Date: 14 November 2018
Orbit: 402 x 409 km, 51.6° (Epoch: 14 November)

Event Time Altitude Azimuth Distance (km) Brightness Sun altitude
Exits shadow 05:45:06 15° 225° (SW) 1,176 -1.8 -14.7°
Maximum altitude 05:45:09 15° 223° (SW) 1,175 -1.8 -14.6°
Drops below altitude 10° 05:47:10 10° 185° (S) 1,456 -0.9 -14.3°
Sets 05:49:49 0° 162° (SSE) 2,313 0.4 -13.9°
